593  
ASUS44 KEWX 240010  
RWREWX  
SOUTH TEXAS REGIONAL WEATHER ROUNDUP  
NATIONAL WEATHER SERVICE AUSTIN/SAN ANTONIO TX  
700 PM CDT MON APR 23 2018  
 
NOTE: "FAIR" INDICATED FEW OR NO CLOUDS BELOW 12,000 FEET WITH NO  
SIGNIFICANT WEATHER AND/OR S TO VISIBILITY
.  
 
* - THESE STATIONS ARE NOT NWS OR FAA STATIONS...AND ARE NOT SUBJECT  
TO NWS AND FAA QUALITY CONTROL.
 
 
TXZ171-172-183>190-240100-  
TEXAS HILL COUNTRY AND EDWARDS PLATEAU  
 
CITY SKY/WX TMP DP RH WIND PRES REMARKS
 
JUNCTION SUNNY 85 39 19 CALM 29.98F  
6HR MIN TEMP: 75; 6HR MAX TEMP: 87;  
 
*LLANO SUNNY 82 43 24 CALM 30.02S  
BURNET SUNNY 82 44 26 VRB3 30.02S  
6HR MIN TEMP: 75; 6HR MAX TEMP: 84;  
 
*HORSESHOE BAY SUNNY 82 43 24 CALM 29.99S  
6HR MIN TEMP: 75; 6HR MAX TEMP: 84;  
 
*KERRVILLE SUNNY 84 42 22 S5 29.99S  
6HR MIN TEMP: 76; 6HR MAX TEMP: 85;  
 
*FREDERICKSBRG SUNNY 81 39 22 CALM 29.99F  
6HR MIN TEMP: 75; 6HR MAX TEMP: 83;  
 
*ROCKSPRINGS SUNNY 82 43 24 S7 30.05S  
*BOERNE STAGE SUNNY 79 48 34 S9 30.00S  
*CASTROVILLE SUNNY 83 47 28 SE7 29.99S  
HONDO SUNNY 84 52 33 SE8 29.97F  
6HR MIN TEMP: 79; 6HR MAX TEMP: 86;  
 
*UVALDE SUNNY 82 51 33 SE6 29.98S  
6HR MIN TEMP: 76; 6HR MAX TEMP: 83;  
 
DEL RIO SUNNY 87 53 31 SE12 29.93S  
6HR MIN TEMP: 80; 6HR MAX TEMP: 88;  
 
LAUGHLIN AFB MOSUNNY 86 51 29 SE9 29.94S  
6HR MIN TEMP: 79; 6HR MAX TEMP: 87;  
 
CARRIZO SPRGS SUNNY 84 52 32 SE3 29.94S  
*EAGLE PASS CLEAR 86 50 28 SE6G16 29.95S  
*FAITH RANCH SUNNY 86 52 30 SE8G14 29.95S  

 
 
TXZ173-191>194-202-209-217>225-228-240100-  
CENTRAL AND SOUTH CENTRAL TEXAS  
 
CITY SKY/WX TMP DP RH WIND PRES REMARKS
 
GEORGETOWN SUNNY 81 48 31 N9 30.00S  
6HR MIN TEMP: 76; 6HR MAX TEMP: 83;  
 
AUSTIN/BERGSTM MOSUNNY 82 51 34 E5 29.96S  
6HR MIN TEMP: 78; 6HR MAX TEMP: 86;  
 
AUSTIN/MABRY SUNNY 84 44 24 CALM 29.98S  
6HR MIN TEMP: 79; 6HR MAX TEMP: 87;  
 
*AUSTIN/EXEC SUNNY 81 48 32 N8 29.98S  
*LAGO VISTA SUNNY 82 43 24 N6 30.00S  
6HR MIN TEMP: 78; 6HR MAX TEMP: 85;  
 
SAN MARCOS SUNNY 82 50 32 S7 29.98S  
6HR MIN TEMP: 80; 6HR MAX TEMP: 86;  
 
NEW BRAUNFELS SUNNY 80 51 36 S5 29.96F  
6HR MIN TEMP: 78; 6HR MAX TEMP: 86;  
 
RANDOLPH AFB SUNNY 79 55 42 SE8 29.97F  
6HR MIN TEMP: 74; 6HR MAX TEMP: 82;  
 
PT SAN ANTONIO SUNNY 82 51 34 SE9 29.95F  
6HR MIN TEMP: 77; 6HR MAX TEMP: 83;  
 
SAN ANTONIO MOSUNNY 81 51 35 SE8 29.97F  
6HR MIN TEMP: 76; 6HR MAX TEMP: 83;  
 
STINSON FIELD SUNNY 82 54 37 SE8 29.95F  
6HR MIN TEMP: 78; 6HR MAX TEMP: 85;  
 
*LA GRANGE SUNNY 80 54 39 CALM 29.96S  
6HR MIN TEMP: 75; 6HR MAX TEMP: 81;  
 
*GIDDINGS SUNNY 79 49 34 N3 29.98F  
6HR MIN TEMP: 73; 6HR MAX TEMP: 80;  
 
*GONZALES SUNNY 80 56 43 CALM 29.97F  
6HR MIN TEMP: 75; 6HR MAX TEMP: 82;  
 

 
 
TXZ163>164-176>182-195>201-210>213-226-227-235-240100-  
SOUTHEAST TEXAS  
 
CITY SKY/WX TMP DP RH WIND PRES REMARKS
 
COLLEGE STN SUNNY 75 52 44 N9 29.98S  
6HR MIN TEMP: 72; 6HR MAX TEMP: 78;  
 
*BRYAN SUNNY 74 51 45 N7 29.99S  
6HR MIN TEMP: 71; 6HR MAX TEMP: 76;  
 
*CALDWELL SUNNY 76 53 44 N6 29.98S  
6HR MIN TEMP: 73; 6HR MAX TEMP: 79;  
 
*CROCKETT SUNNY 72 55 56 NW5 30.01S  
*BRENHAM SUNNY 77 55 47 N5 29.98S  
6HR MIN TEMP: 74; 6HR MAX TEMP: 80;  
 
HUNTSVILLE SUNNY 74 53 48 VRB6 29.98S  
6HR MIN TEMP: 72; 6HR MAX TEMP: 77;  
 
CONROE SUNNY 74 54 49 NW8 29.97F  
6HR MIN TEMP: 74; 6HR MAX TEMP: 78;  
 
HOUSTON BUSH FAIR 77 52 41 N13 29.96S  
6HR MIN TEMP: 75; 6HR MAX TEMP: 80;  
 
HOUSTON HOBBY FAIR 78 49 35 NW10 29.96S  
6HR MIN TEMP: 75; 6HR MAX TEMP: 80;  
 
*HOUSTON SW AP FAIR 76 52 43 NW8 29.98S  
6HR MIN TEMP: 75; 6HR MAX TEMP: 80;  
 
PEARLAND FAIR 78 49 35 NW10 29.98R  
6HR MIN TEMP: 75; 6HR MAX TEMP: 80;  
 
HOUSTON HOOKS FAIR 76 53 44 NW6 29.97S  
6HR MIN TEMP: 75; 6HR MAX TEMP: 79;  
 
ELLINGTON FLD SUNNY 77 52 41 SW14 29.97S  
SUGAR LAND FAIR 78 50 37 NW13 29.96F  
6HR MIN TEMP: 76; 6HR MAX TEMP: 81;  
 
*HOUSTON EXEC FAIR 77 55 47 N7 29.98F  
*CLEVELAND MUN FAIR 76 47 35 NW8 29.97S  
6HR MIN TEMP: 74; 6HR MAX TEMP: 79;  
 
*WHARTON SUNNY 78 49 35 N6 29.98S  
6HR MIN TEMP: 75; 6HR MAX TEMP: 80;  
 
*COLUMBUS FAIR 78 49 36 NW3 29.98F  
6HR MIN TEMP: 74; 6HR MAX TEMP: 79; 6HR PCP: 0.01;  
 
*EAGLE LAKE CLEAR 78 55 44 NW5 29.97F  
6HR MIN TEMP: 75; 6HR MAX TEMP: 81;  
 

 
 
TXZ214>216-236>238-240100-  
THE UPPER TEXAS COAST  
 
CITY SKY/WX TMP DP RH WIND PRES REMARKS
 
*ORANGE FAIR 74 56 52 NW3 29.96S  
6HR MIN TEMP: 73; 6HR MAX TEMP: 76;  
 
PORT ARTHUR FAIR 74 53 48 NW12 29.94S  
6HR MIN TEMP: 74; 6HR MAX TEMP: 79;  
 
GALVESTON FAIR 78 55 44 W13 29.97R  
6HR MIN TEMP: 76; 6HR MAX TEMP: 81;  
 
ANGLETON FAIR 79 53 40 NW8 29.97S  
6HR MIN TEMP: 76; 6HR MAX TEMP: 82;  
 
*BAY CITY SUNNY 80 53 40 NW6 29.97S  
PALACIOS SUNNY 75 60 59 S9 29.97S  
6HR MIN TEMP: 75; 6HR MAX TEMP: 81;  
 

 
 
TXZ229>234-239>247-240100-  
TEXAS COASTAL BEND AND RIO GRANDE PLAINS  
 
CITY SKY/WX TMP DP RH WIND PRES REMARKS
 
VICTORIA SUNNY 83 52 34 CALM 29.97F  
6HR MIN TEMP: 78; 6HR MAX TEMP: 85;  
 
*BEEVILLE SUNNY 82 51 33 CALM 29.97F  
6HR MIN TEMP: 76; 6HR MAX TEMP: 83;  
 
ROCKPORT SUNNY 73 55 53 S12 29.98F  
6HR MIN TEMP: 73; 6HR MAX TEMP: 78;  
 
*PORT ARANSAS NOT AVBL  
*PORT LAVACA SUNNY 81 50 34 CALM 29.98R  
6HR MIN TEMP: 76; 6HR MAX TEMP: 83;  
 
*INGLESIDE SUNNY 75 54 47 S12 29.99S  
CORPUS CHRISTI MOSUNNY 77 54 44 S15 29.99R  
6HR MIN TEMP: 77; 6HR MAX TEMP: 83;  
 
CORPUS NAS MOSUNNY 76 54 46 S13 29.99F  
6HR MIN TEMP: 76; 6HR MAX TEMP: 81;  
 
*ROBSTOWN SUNNY 79 52 38 SE13 29.99S  
6HR MIN TEMP: 79; 6HR MAX TEMP: 85;  
 
ALICE SUNNY 80 51 36 S14 29.97S  
6HR MIN TEMP: 80; 6HR MAX TEMP: 86;  
 
KINGSVILLE NAS MOSUNNY 78 52 40 SE13 30.00R  
6HR MIN TEMP: 78; 6HR MAX TEMP: 86;  
 
COTULLA SUNNY 86 51 29 SE9 29.95S  
6HR MIN TEMP: 79; 6HR MAX TEMP: 87;  
 
LAREDO MOSUNNY 85 53 33 S16 29.95S  
6HR MIN TEMP: 82; 6HR MAX TEMP: 90;  
 

 
 
TXZ248>255-240100-  
DEEP SOUTH TEXAS  
 
CITY SKY/WX TMP DP RH WIND PRES REMARKS
 
BROWNSVILLE FAIR 78 61 55 E12 30.01S  
6HR MIN TEMP: 78; 6HR MAX TEMP: 86;  
 
PORT ISABEL PTSUNNY 75 62 64 E9 30.01R  
6HR MIN T  
 
CLICK HERE TO GO TO PREVIOUS BULLETINS.

The Nexlab TX Page Main Text Page